Flag for India Weather past 2 weeks in Thiruvananthapuram, Kerala, India

Now
82 °F

Haze.


Feels Like: 89 °F
Forecast: 81 / 90 °F
Wind: 3 mph from North

Location: Thiruvananthapuram

Current Time: Apr 19, 2015 at 9:12:45 AM

Latest Report: Apr 19, 2015 at 8:40 AM


Visibility: 2 mi

Pressure: 29.80 "Hg

Humidity: 79%

Dew point: 75 °F

Location of ThiruvananthapuramLocation

Historic Weather in Thiruvananthapuram — Graph

°F

Thiruvananthapuram temperature yesterday

Maximum temperature yesterday: 91 °F (at 3:10 PM)
Minimum temperature yesterday: 77 °F (at 4:40 AM)
Average temperature yesterday: 84 °F

Past Weeks' High & Low Weather Summary

 TemperatureHumidityPressure
High91 °F (Apr 4, 2:40 PM)94% (Apr 13, 5:40 AM)29.95 "Hg (Apr 13, 5:40 AM)
Low77 °F (Apr 6, 6:40 AM)21% (Apr 16, 2:40 AM)29.62 "Hg (Apr 4, 2:40 PM)
Average84 °F75%29.81 "Hg
* Reported Apr 4 8:40 AM — Apr 19 7:40 AM, Thiruvananthapuram, Weather by CustomWeather, © 2015

Note: Actual official high and low records may vary slightly from our data, if they occured in-between our weather recording intervals... More about our weather records

Advertising

Thiruvananthapuram weather history for previous 24 hours

 ConditionsComfort  
Time TempWeatherWind HumidityBarometerVisibility
7:40 AM
Sun, Apr 19
79 °FHaze.5 mph84%29.77 "Hg2 mi
7:10 AM79 °FHaze.No wind84%29.77 "Hg2 mi
4:40 AM79 °FHaze.3 mph84%29.68 "Hg2 mi
3:40 AM79 °FHaze.3 mph84%29.71 "Hg2 mi
2:40 AM79 °FHaze.No wind84%29.71 "Hg2 mi
2:10 AM79 °FHaze.No wind89%29.74 "Hg2 mi
12:40 AM81 °FHaze.5 mph84%29.77 "Hg2 mi
12:10 AM81 °FHaze.5 mph84%29.77 "Hg2 mi
11:40 PM
Sat, Apr 18
81 °FHaze.5 mph84%29.77 "Hg2 mi
11:10 PM81 °FHaze.5 mph84%29.80 "Hg2 mi
10:40 PM82 °FHaze.5 mph79%29.80 "Hg2 mi
10:10 PM82 °FHaze.5 mph79%29.77 "Hg2 mi
9:40 PM82 °FHaze.6 mph79%29.77 "Hg2 mi
9:10 PM84 °FHaze.7 mph74%29.77 "Hg2 mi
8:40 PM84 °FHaze.5 mph74%29.77 "Hg2 mi
6:40 PM88 °FPassing clouds.9 mph66%29.71 "Hg4 mi
6:10 PM88 °FPassing clouds.9 mph66%29.68 "Hg4 mi
4:40 PM90 °FScattered clouds.9 mph67%29.68 "Hg4 mi
4:10 PM90 °FScattered clouds.9 mph67%29.68 "Hg4 mi
3:10 PM91 °FScattered clouds.10 mph63%29.68 "Hg4 mi
2:40 PM90 °FScattered clouds.9 mph67%29.68 "Hg4 mi
2:10 PM90 °FBroken clouds.14 mph67%29.71 "Hg4 mi
11:10 AM88 °FHaze.12 mph66%29.80 "Hg3 mi
9:40 AM86 °FHaze.5 mph70%29.83 "Hg3 mi
9:10 AM84 °FHaze.5 mph74%29.83 "Hg3 mi
Weather by CustomWeather, © 2015

See weather overviewHow to use our weather pages